STARLINK-4764 (53827 NORAD) Tracking and Keplerian Element Data

This shows tracking and keplerian element data for the satellite.

Feedback or suggestion? Click here.




ElementValue
Catalog53827
NameSTARLINK-4764
Epoch Orbit1046
Epoch Day325.33334491
Epoch Year2022
RAAN310.7901
Inclination53.2175
Eccentricity0.0001206
Argument of Perigee100.0867
Mean Anonmoly234.7977
Mean Motion15.14512775
Decay Rate-0.01101767
L11 53827U 22114K 22325.33334491 -.01101767 00000+0 -63967-1 0 9995
L22 53827 53.2175 310.7901 0001206 100.0867 234.7977 15.14512775 10460



Live tracking and technical data element details for STARLINK-4764 (NORAD 53827). STARLINK-4764 can be tracked NOW for your location showing map with azimuth and elevation plus other details from your city location.







IsCatalogInMostPopularTable: catalog: 53827, numindb: -1

Insert: records affected: 1


GetName: 53827 STARLINK-4764

Hit Count: inserted at: Mon, 28 Nov 2022 05:21:36 GMT